Terminal Aerodrome Forecast
Issued by NWS

Home | Current Version | Previous Version | Text Only | Print | Product List | Glossary On
Versions: 1 2 3 4 5 6 7 8 9 10 11 12 13 14 15 16 17 18 19 20 21 22 23 24 25 26 27 28 29 30 31 32 33 34 35 36 37 38 39 40 41 42 43 44 45 46
000
FTUS42 KMFL 241124
TAFTMB
TAF
KTMB 241124Z 2412/2512 VRB03KT P6SM SCT020 SCT030 BKN045
     FM241500 14008KT P6SM VCSH SCT030 SCT050
     FM250000 VRB03KT P6SM FEW025 SCT250=

USA.gov is the U.S. government's official web portal to all federal, state and local government web resources and services.